FW5336 Weather Reports


Display with metric or nautical units.
time (UTC)temp
F
wind
direction
speed
MPH
gust
MPH
rain 1hr
in
rain 24hr
in
rain mn
in
humidity
%
barometer
mb
20260903074414 76 316 4.0 5.0 0.00 0.00 0.00 82 1016.4
20260903073910 76 307 1.0 1.0 0.00 0.00 0.00 82 1015.7
20260903073405 76 234 0.0 1.0 0.00 0.00 0.00 81 1015.5
20260903072901 76 229 1.0 1.0 0.00 0.00 0.00 81 1015.8
20260903072356 76 232 0.0 0.0 0.00 0.00 0.00 81 1016.0
20260903071854 76 239 0.0 0.0 0.00 0.00 0.00 81 1016.2
20260903071349 76 209 0.0 0.0 0.00 0.00 0.00 81 1016.2
20260903070844 76 236 0.0 0.0 0.00 0.00 0.00 81 1015.8
20260903070339 76 164 2.0 2.0 0.00 0.00 0.00 81 1016.1
20260903065834 76 355 1.0 1.0 0.00 0.00 0.00 80 1016.4
20260903065333 76 241 0.0 0.0 0.00 0.00 0.00 80 1016.1
20260903064833 75 292 0.0 1.0 0.00 0.00 0.00 80 1016.0
20260903064328 75 235 0.0 1.0 0.00 0.00 0.00 81 1015.6
20260903063824 75 276 1.0 1.0 0.00 0.00 0.00 82 1015.5
20260903063318 75 237 0.0 0.0 0.00 0.00 0.00 82 1015.1
20260903062809 75 232 0.0 1.0 0.00 0.00 0.00 82 1015.0
20260903062308 75 234 0.0 0.0 0.00 0.00 0.00 82 1015.3
20260903061805 75 239 0.0 0.0 0.00 0.00 0.00 82 1015.2
20260903061304 75 239 0.0 0.0 0.00 0.00 0.00 82 1015.4
20260903060800 75 235 0.0 0.0 0.00 0.00 0.00 82 1015.4
20260903060300 75 229 0.0 0.0 0.00 0.00 0.00 81 1015.5
20260903055757 75 229 0.0 1.0 0.00 0.00 0.00 81 1015.6
20260903055256 75 242 0.0 0.0 0.00 0.00 0.00 80 1015.7
20260903054751 76 242 0.0 0.0 0.00 0.00 0.00 80 1015.9
20260903054245 76 241 0.0 1.0 0.00 0.00 0.00 80 1015.9
20260903053742 76 245 1.0 1.0 0.00 0.00 0.00 79 1015.8
20260903053242 76 242 0.0 1.0 0.00 0.00 0.00 79 1015.8
20260903052738 75 239 0.0 1.0 0.00 0.00 0.00 80 1015.7
20260903052234 75 277 1.0 2.0 0.00 0.00 0.00 80 1015.6
20260903051728 75 241 0.0 1.0 0.00 0.00 0.00 80 1015.5
20260903051224 75 241 0.0 0.0 0.00 0.00 0.00 80 1015.4
20260903050720 75 239 0.0 0.0 0.00 0.00 0.00 80 1015.6
20260903050218 75 239 0.0 0.0 0.00 0.00 0.00 81 1015.2
20260903045713 75 218 1.0 1.0 0.00 0.00 0.00 80 1015.3
20260903045210 75 215 1.0 1.0 0.00 0.00 0.00 80 1015.4
20260903044705 75 242 0.0 1.0 0.00 0.00 0.00 80 1015.4
20260903044201 75 296 1.0 2.0 0.00 0.00 0.00 79 1015.7
20260903043658 75 355 3.0 6.0 0.00 0.00 0.00 78 1015.8
20260903043157 75 248 1.0 3.0 0.00 0.00 0.00 79 1015.9
20260903042656 75 277 2.0 5.0 0.00 0.00 0.00 79 1016.2
20260903042151 75 303 1.0 3.0 0.00 0.00 0.00 79 1016.3
20260903041648 75 268 0.0 2.0 0.00 0.00 0.00 79 1016.3
20260903041143 75 276 1.0 8.0 0.00 0.00 0.00 79 1016.3
20260903040642 75 86 3.0 8.0 0.00 0.00 0.00 78 1016.4
20260903040138 76 314 4.0 14.0 0.00 0.00 0.00 78 1016.5
20260903035634 76 314 4.0 8.0 0.00 0.00 0.00 76 1017.0
20260903035130 76 312 5.0 8.0 0.00 0.00 0.00 75 1016.6
20260903034624 76 22 3.0 7.0 0.00 0.00 0.00 73 1016.6
20260903034119 77 61 4.0 8.0 0.00 0.00 0.00 72 1016.2
20260903033615 78 252 7.0 10.0 0.00 0.00 0.00 69 1016.5
20260903033109 78 201 4.0 10.0 0.00 0.00 0.00 66 1016.5
20260903032604 79 224 6.0 15.0 0.00 0.00 0.00 69 1016.7
20260903032059 82 288 11.0 18.0 0.00 0.00 0.00 67 1016.7
20260903031554 84 242 1.0 3.0 0.00 0.00 0.00 77 1015.3
20260903031049 84 255 0.0 2.0 0.00 0.00 0.00 76 1014.8
20260903030544 84 280 1.0 5.0 0.00 0.00 0.00 77 1014.5
20260903030041 84 249 4.0 6.0 0.00 0.00 0.00 77 1014.5
20260903025536 84 249 2.0 5.0 0.00 0.00 0.00 77 1014.1
20260903025032 84 242 3.0 3.0 0.00 0.00 0.00 77 1014.1
20260903024531 84 276 2.0 5.0 0.00 0.00 0.00 77 1014.0
20260903024025 84 232 0.0 2.0 0.00 0.00 0.00 77 1013.4
20260903023521 84 235 0.0 2.0 0.00 0.00 0.00 76 1013.5
20260903023017 84 242 0.0 2.0 0.00 0.00 0.00 76 1013.7
20260903022516 84 207 1.0 6.0 0.00 0.00 0.00 76 1014.1
20260903022014 85 241 0.0 2.0 0.00 0.00 0.00 75 1014.3
20260903021509 85 245 0.0 1.0 0.00 0.00 0.00 75 1014.7
20260903021004 85 239 0.0 1.0 0.00 0.00 0.00 75 1014.9
20260903020459 85 256 0.0 2.0 0.00 0.00 0.00 74 1014.8
20260903015954 85 252 0.0 1.0 0.00 0.00 0.00 74 1014.9
20260903015450 85 276 1.0 2.0 0.00 0.00 0.00 74 1014.7
20260903014950 85 230 1.0 1.0 0.00 0.00 0.00 73 1014.8
20260903014444 86 234 0.0 2.0 0.00 0.00 0.00 73 1014.8
20260903013939 86 256 2.0 2.0 0.00 0.00 0.00 72 1014.8
20260903013439 86 260 0.0 2.0 0.00 0.00 0.00 72 1014.7
20260903012938 86 255 1.0 2.0 0.00 0.00 0.00 72 1014.6
20260903012438 86 239 0.0 2.0 0.00 0.00 0.00 71 1014.7
20260903011936 86 266 0.0 2.0 0.00 0.00 0.00 71 1014.8
20260903011431 87 228 2.0 3.0 0.00 0.00 0.00 71 1014.6
20260903010926 87 233 0.0 2.0 0.00 0.00 0.00 70 1014.6
20260903010422 87 241 1.0 5.0 0.00 0.00 0.00 69 1014.4
20260903005920 87 241 1.0 2.0 0.00 0.00 0.00 69 1014.5
20260903005415 87 237 0.0 1.0 0.00 0.00 0.00 68 1014.2
20260903004912 87 247 1.0 2.0 0.00 0.00 0.00 68 1014.4
20260903004412 88 249 0.0 2.0 0.00 0.00 0.00 68 1014.2
20260903003907 88 291 2.0 5.0 0.00 0.00 0.00 67 1014.2
20260903003402 88 223 3.0 6.0 0.00 0.00 0.00 66 1013.9
20260903002901 88 248 1.0 1.0 0.00 0.00 0.00 66 1014.1
20260903002356 88 256 1.0 1.0 0.00 0.00 0.00 65 1014.1
20260903001851 89 252 1.0 2.0 0.00 0.00 0.00 64 1014.1
20260903001346 89 254 1.0 1.0 0.00 0.00 0.00 64 1014.0
20260903000846 89 247 1.0 3.0 0.00 0.00 0.00 63 1014.1
20260903000341 89 247 0.0 2.0 0.00 0.00 0.00 62 1014.2
20260902235839 90 272 2.0 3.0 0.00 0.00 0.00 62 1014.2
20260902235334 90 243 1.0 2.0 0.00 0.00 0.00 61 1014.4
20260902234834 90 229 2.0 6.0 0.00 0.00 0.00 60 1014.4
20260902234329 91 250 0.0 6.0 0.00 0.00 0.00 59 1014.5
20260902233827 91 279 1.0 3.0 0.00 0.00 0.00 59 1014.4
20260902233327 91 304 5.0 8.0 0.00 0.00 0.00 58 1014.3
20260902232825 92 233 2.0 2.0 0.00 0.00 0.00 58 1014.4
20260902232320 92 254 2.0 3.0 0.00 0.00 0.00 57 1014.5
20260902231815 92 254 0.0 0.0 0.00 0.00 0.00 57 1014.3
20260902231310 93 250 1.0 2.0 0.00 0.00 0.00 56 1014.2
20260902230805 93 224 0.0 2.0 0.00 0.00 0.00 55 1014.3
20260902230304 93 247 3.0 6.0 0.00 0.00 0.00 55 1014.2
20260902225759 93 276 3.0 8.0 0.00 0.00 0.00 54 1014.1
20260902225254 93 336 3.0 8.0 0.00 0.00 0.00 54 1014.1
20260902224752 93 261 1.0 3.0 0.00 0.00 0.00 53 1013.9
20260902224248 93 252 1.0 3.0 0.00 0.00 0.00 53 1014.0
20260902223744 93 172 1.0 7.0 0.00 0.00 0.00 53 1013.9
20260902223243 95 291 0.0 3.0 0.00 0.00 0.00 51 1014.0
20260902222737 95 263 6.0 9.0 0.00 0.00 0.00 50 1014.1
20260902222236 95 209 1.0 3.0 0.00 0.00 0.00 50 1014.0
20260902221731 95 258 3.0 5.0 0.00 0.00 0.00 49 1013.8
20260902221230 95 233 3.0 6.0 0.00 0.00 0.00 49 1013.9
20260902220726 95 345 3.0 6.0 0.00 0.00 0.00 50 1013.9
20260902220220 95 221 6.0 10.0 0.00 0.00 0.00 49 1014.0
20260902215716 95 279 2.0 5.0 0.00 0.00 0.00 49 1014.1
20260902215211 95 299 5.0 7.0 0.00 0.00 0.00 50 1014.0
20260902214706 95 261 1.0 5.0 0.00 0.00 0.00 49 1014.3
20260902214205 95 267 3.0 8.0 0.00 0.00 0.00 49 1014.2
20260902213701 96 271 1.0 6.0 0.00 0.00 0.00 49 1014.4
20260902213155 96 259 1.0 5.0 0.00 0.00 0.00 50 1014.2
20260902212650 96 265 2.0 3.0 0.00 0.00 0.00 49 1014.3
20260902212147 96 291 4.0 9.0 0.00 0.00 0.00 48 1014.3
20260902211642 96 243 6.0 9.0 0.00 0.00 0.00 48 1014.2
20260902211137 95 324 3.0 7.0 0.00 0.00 0.00 49 1014.3
20260902210636 97 277 1.0 3.0 0.00 0.00 0.00 48 1014.3
20260902210132 98 257 3.0 8.0 0.00 0.00 0.00 47 1014.3
20260902205630 96 267 1.0 1.0 0.00 0.00 0.00 49 1014.3
20260902205126 96 259 4.0 7.0 0.00 0.00 0.00 48 1014.3
20260902204620 97 260 2.0 3.0 0.00 0.00 0.00 47 1014.4
20260902204115 96 231 2.0 6.0 0.00 0.00 0.00 50 1014.5
20260902203611 96 322 4.0 8.0 0.00 0.00 0.00 50 1014.4
20260902203110 96 305 1.0 2.0 0.00 0.00 0.00 50 1014.4
20260902202606 97 252 1.0 8.0 0.00 0.00 0.00 49 1014.6
20260902202102 98 288 6.0 9.0 0.00 0.00 0.00 47 1014.8
20260902201558 96 263 1.0 5.0 0.00 0.00 0.00 50 1014.7
20260902201056 96 259 3.0 5.0 0.00 0.00 0.00 51 1014.8
20260902200552 96 202 3.0 6.0 0.00 0.00 0.00 50 1014.8
20260902200048 96 254 1.0 3.0 0.00 0.00 0.00 51 1015.0
20260902195544 97 227 7.0 9.0 0.00 0.00 0.00 49 1014.9
20260902195042 98 308 3.0 8.0 0.00 0.00 0.00 49 1014.9
20260902194536 98 170 4.0 9.0 0.00 0.00 0.00 48 1015.0
20260902194032 98 307 1.0 3.0 0.00 0.00 0.00 47 1014.9
20260902193528 98 223 2.0 3.0 0.00 0.00 0.00 48 1015.3
20260902193027 98 261 5.0 10.0 0.00 0.00 0.00 46 1015.3
20260902192526 99 261 4.0 7.0 0.00 0.00 0.00 46 1015.1
20260902192025 98 324 3.0 6.0 0.00 0.00 0.00 48 1015.4
20260902191520 96 267 2.0 6.0 0.00 0.00 0.00 50 1015.2
20260902191015 97 247 4.0 6.0 0.00 0.00 0.00 49 1015.1
20260902190510 98 348 4.0 10.0 0.00 0.00 0.00 49 1015.2
20260902190006 97 260 3.0 5.0 0.00 0.00 0.00 51 1015.3
20260902185502 97 181 2.0 9.0 0.00 0.00 0.00 50 1015.4
20260902184956 98 294 1.0 3.0 0.00 0.00 0.00 48 1015.5
20260902184452 98 277 2.0 6.0 0.00 0.00 0.00 51 1015.4
20260902183947 97 243 3.0 7.0 0.00 0.00 0.00 49 1015.5
20260902183444 98 282 4.0 6.0 0.00 0.00 0.00 49 1015.5
20260902182939 98 266 5.0 9.0 0.00 0.00 0.00 49 1015.7
20260902182435 98 200 2.0 3.0 0.00 0.00 0.00 50 1015.5
20260902181932 97 266 3.0 5.0 0.00 0.00 0.00 50 1015.6
20260902181427 97 317 3.0 8.0 0.00 0.00 0.00 49 1015.7
20260902180927 97 243 4.0 7.0 0.00 0.00 0.00 51 1015.9
20260902180422 97 262 2.0 5.0 0.00 0.00 0.00 51 1016.1
20260902175918 96 249 2.0 9.0 0.00 0.00 0.00 51 1015.9
20260902175412 95 282 0.0 6.0 0.00 0.00 0.00 52 1016.1
20260902174908 96 284 3.0 7.0 0.00 0.00 0.00 51 1016.1
20260902174405 96 326 6.0 9.0 0.00 0.00 0.00 51 1016.1
20260902173901 96 341 4.0 6.0 0.00 0.00 0.00 51 1016.1
20260902173400 97 257 5.0 7.0 0.00 0.00 0.00 50 1016.2
20260902172855 97 205 1.0 10.0 0.00 0.00 0.00 49 1016.3
20260902172354 98 291 4.0 7.0 0.00 0.00 0.00 51 1016.4
20260902171849 96 121 1.0 5.0 0.00 0.00 0.00 50 1016.3
20260902171345 96 259 1.0 8.0 0.00 0.00 0.00 52 1016.5
20260902170841 96 236 5.0 8.0 0.00 0.00 0.00 51 1016.6
20260902170336 96 272 5.0 7.0 0.00 0.00 0.00 53 1016.6
20260902165832 95 172 1.0 3.0 0.00 0.00 0.00 53 1016.5
20260902165331 95 281 7.0 10.0 0.00 0.00 0.00 53 1016.6
20260902164825 95 228 3.0 5.0 0.00 0.00 0.00 55 1016.6
20260902164320 96 252 1.0 5.0 0.00 0.00 0.00 55 1016.6
20260902163814 96 306 5.0 7.0 0.00 0.00 0.00 54 1016.9
20260902163309 96 240 0.0 3.0 0.00 0.00 0.00 56 1016.7
20260902162807 95 244 0.0 1.0 0.00 0.00 0.00 56 1016.9
20260902162306 94 246 4.0 6.0 0.00 0.00 0.00 58 1016.9
20260902161802 94 264 2.0 5.0 0.00 0.00 0.00 57 1017.1
20260902161258 94 197 1.0 2.0 0.00 0.00 0.00 58 1016.9
20260902160754 94 267 1.0 2.0 0.00 0.00 0.00 58 1017.2
20260902160249 93 329 2.0 6.0 0.00 0.00 0.00 58 1017.0
20260902155747 93 333 3.0 3.0 0.00 0.00 0.00 60 1017.1
20260902155246 92 250 1.0 5.0 0.00 0.00 0.00 60 1017.2
20260902154741 92 244 1.0 3.0 0.00 0.00 0.00 61 1017.1
20260902154236 91 247 2.0 5.0 0.00 0.00 0.00 61 1017.0
20260902153729 91 265 1.0 2.0 0.00 0.00 0.00 61 1017.1
20260902153224 91 260 2.0 7.0 0.00 0.00 0.00 61 1017.1
20260902152720 91 241 3.0 7.0 0.00 0.00 0.00 62 1017.0
20260902152216 92 220 1.0 3.0 0.00 0.00 0.00 62 1017.0
20260902151711 91 243 1.0 5.0 0.00 0.00 0.00 64 1017.1
20260902151206 91 272 2.0 3.0 0.00 0.00 0.00 64 1017.0
20260902150701 91 260 1.0 5.0 0.00 0.00 0.00 65 1017.0
20260902150157 90 196 2.0 2.0 0.00 0.00 0.00 65 1017.0
20260902145656 90 244 2.0 6.0 0.00 0.00 0.00 65 1017.1
20260902145155 90 229 4.0 5.0 0.00 0.00 0.00 65 1017.1
20260902144652 89 272 1.0 2.0 0.00 0.00 0.00 68 1016.9
20260902144148 89 246 1.0 5.0 0.00 0.00 0.00 68 1017.1
20260902143648 88 239 1.0 2.0 0.00 0.00 0.00 69 1016.9
20260902143143 88 249 1.0 2.0 0.00 0.00 0.00 70 1016.9
20260902142639 88 261 0.0 1.0 0.00 0.00 0.00 70 1017.0
20260902142135 88 234 0.0 2.0 0.00 0.00 0.00 69 1017.1
20260902141634 87 327 2.0 2.0 0.00 0.00 0.00 71 1017.2
20260902141130 87 161 0.0 2.0 0.00 0.00 0.00 71 1016.9
20260902140625 87 224 1.0 2.0 0.00 0.00 0.00 71 1017.1
20260902140120 86 247 1.0 3.0 0.00 0.00 0.00 73 1017.1
20260902135619 86 247 1.0 2.0 0.00 0.00 0.00 72 1017.0
20260902135114 86 219 0.0 3.0 0.00 0.00 0.00 74 1016.9
20260902134609 86 228 0.0 1.0 0.00 0.00 0.00 75 1017.0
20260902134104 85 240 0.0 1.0 0.00 0.00 0.00 75 1017.0
20260902133559 84 254 0.0 6.0 0.00 0.00 0.00 75 1016.9
20260902133059 84 283 1.0 2.0 0.00 0.00 0.00 77 1017.1
20260902132554 84 250 1.0 1.0 0.00 0.00 0.00 77 1017.1
20260902132049 83 250 1.0 2.0 0.00 0.00 0.00 79 1016.9
20260902131545 83 263 3.0 3.0 0.00 0.00 0.00 79 1017.1
20260902131039 83 249 0.0 2.0 0.00 0.00 0.00 79 1017.1
20260902130536 83 264 3.0 3.0 0.00 0.00 0.00 80 1017.2
20260902130031 82 264 1.0 2.0 0.00 0.00 0.00 81 1017.1
20260902125527 82 233 0.0 2.0 0.00 0.00 0.00 81 1017.3
20260902125022 81 241 0.0 1.0 0.00 0.00 0.00 83 1017.2
20260902124518 80 266 0.0 1.0 0.00 0.00 0.00 84 1017.1
20260902124013 80 239 1.0 1.0 0.00 0.00 0.00 85 1016.9
20260902123509 79 266 2.0 3.0 0.00 0.00 0.00 88 1017.1
20260902123008 78 249 0.0 1.0 0.00 0.00 0.00 89 1017.1
20260902122503 78 250 0.0 1.0 0.00 0.00 0.00 91 1017.1
20260902121958 77 265 1.0 2.0 0.00 0.00 0.00 92 1017.1
20260902121454 77 251 0.0 1.0 0.00 0.00 0.00 94 1017.0
20260902120948 76 248 0.0 0.0 0.00 0.00 0.00 95 1016.7
20260902120445 76 246 0.0 2.0 0.00 0.00 0.00 96 1017.0
20260902115944 76 276 1.0 2.0 0.00 0.00 0.00 96 1016.7
20260902115441 75 252 1.0 1.0 0.00 0.00 0.00 96 1017.0
20260902114937 75 249 0.0 1.0 0.00 0.00 0.00 96 1016.7
20260902114432 75 240 0.0 1.0 0.00 0.00 0.00 96 1016.6
20260902113927 75 252 0.0 1.0 0.00 0.00 0.00 96 1016.7
20260902113423 75 254 0.0 1.0 0.00 0.00 0.00 96 1016.9
20260902112922 75 268 0.0 1.0 0.00 0.00 0.00 96 1017.0
20260902112418 75 230 1.0 1.0 0.00 0.00 0.00 96 1016.7
20260902111914 75 251 0.0 0.0 0.00 0.00 0.00 96 1017.0
20260902111410 75 246 0.0 1.0 0.00 0.00 0.00 96 1016.9
20260902110906 75 249 0.0 0.0 0.00 0.00 0.00 96 1017.0
20260902110402 75 232 0.0 1.0 0.00 0.00 0.00 96 1016.9
20260902105901 75 249 0.0 1.0 0.00 0.00 0.00 96 1017.1
20260902105356 75 235 0.0 1.0 0.00 0.00 0.00 96 1016.7
20260902104851 75 239 0.0 0.0 0.00 0.00 0.00 96 1017.1
20260902104348 75 239 0.0 0.0 0.00 0.00 0.00 96 1017.0
20260902103847 75 292 0.0 0.0 0.00 0.00 0.00 95 1016.9
20260902103342 75 234 0.0 0.0 0.00 0.00 0.00 95 1017.0
20260902102837 75 239 0.0 0.0 0.00 0.00 0.00 95 1016.7
20260902102335 75 241 0.0 0.0 0.00 0.00 0.00 95 1016.5
20260902101830 75 236 0.0 0.0 0.00 0.00 0.00 95 1016.5
20260902101324 75 236 0.0 0.0 0.00 0.00 0.00 94 1016.5
20260902100818 76 239 0.0 0.0 0.00 0.00 0.00 94 1016.5
20260902100312 76 239 0.0 0.0 0.00 0.00 0.00 94 1016.5
20260902095807 76 236 0.0 0.0 0.00 0.00 0.00 94 1016.5
20260902095306 76 241 0.0 0.0 0.00 0.00 0.00 93 1016.6
20260902094756 76 240 0.0 1.0 0.00 0.00 0.00 93 1016.7
20260902094253 76 239 0.0 0.0 0.00 0.00 0.00 93 1016.6
20260902093752 76 229 0.0 0.0 0.00 0.00 0.00 93 1016.6
20260902093248 77 239 0.0 0.0 0.00 0.00 0.00 93 1016.6
20260902092746 76 239 0.0 0.0 0.00 0.00 0.00 93 1016.5
20260902092242 76 239 0.0 2.0 0.00 0.00 0.00 93 1016.7
20260902091741 76 280 0.0 2.0 0.00 0.00 0.00 93 1016.5
20260902091238 76 241 0.0 1.0 0.00 0.00 0.00 94 1016.4
20260902090734 76 239 0.0 1.0 0.00 0.00 0.00 94 1016.6
20260902090233 76 227 0.0 0.0 0.00 0.00 0.00 94 1016.3
20260902085727 76 256 0.0 1.0 0.00 0.00 0.00 94 1016.4
20260902085223 76 223 0.0 1.0 0.00 0.00 0.00 94 1016.4
20260902084719 75 245 0.0 0.0 0.00 0.00 0.00 94 1016.4
20260902084214 75 239 0.0 0.0 0.00 0.00 0.00 93 1016.4
20260902083709 75 239 0.0 1.0 0.00 0.00 0.00 93 1016.3
20260902083209 75 239 0.0 1.0 0.00 0.00 0.00 93 1016.4
20260902082704 75 239 0.0 1.0 0.00 0.00 0.00 93 1016.3
20260902082201 75 239 0.0 1.0 0.00 0.00 0.00 93 1016.4
20260902081657 75 242 0.0 0.0 0.00 0.00 0.00 93 1016.3
20260902081152 75 241 0.0 0.0 0.00 0.00 0.00 92 1016.4
20260902080647 75 249 0.0 0.0 0.00 0.00 0.00 92 1016.2
20260902080143 75 229 0.0 0.0 0.00 0.00 0.00 92 1016.4
20260902075643 75 235 0.0 0.0 0.00 0.00 0.00 92 1016.3
20260902075139 75 239 0.0 0.0 0.00 0.00 0.00 92 1016.3
20260902074634 75 241 0.0 0.0 0.00 0.00 0.00 91 1016.4